This demonstration page uses our WeatherBlox Daily Observations layout. Learn more.

Left ArrowRight Arrow

39.92423, -83.80882

Hourly Observations for July 20, 2021

Temp ( °F °C ) Dew Point ( °F °C ) Humidity (%) Winds ( mph kmh ) Pressure ( in mb ) Visibility ( mi km ) Precip ( " mm )
12:56 am 00:56 Clear 66 19 N/A N/A N N/A 30.09 1019 10 16 N/A
1:56 am 01:56 Clear 66 19 N/A N/A N N/A 30.08 1019 10 16 N/A
2:56 am 02:56 Clear 64 18 N/A N/A NW 3 6 30.07 1018 8 13 N/A
3:56 am 03:56 Clear 64 18 N/A N/A N N/A 30.05 1018 8 13 N/A
4:56 am 04:56 Hazy 63 17 N/A N/A NNW 3 6 30.05 1018 5 8 N/A
5:56 am 05:56 Clear 63 17 N/A N/A NW 6 9 30.06 1018 7 11 N/A
6:56 am 06:56 Hazy 63 17 N/A N/A N 5 7 30.06 1018 6 10 N/A
7:56 am 07:56 Hazy 64 18 N/A N/A N N/A 30.07 1018 6 10 N/A
8:56 am 08:56 Sunny 69 20.6 69 20.6 100 100 N N/A 30.08 1019 8 13 N/A
9:56 am 09:56 Sunny 74 23.3 70 21.1 88 88 NNW 6 9 30.08 1019 9 14 N/A
10:56 am 10:56 Sunny 77 25 70 21.1 79 79 N 6 9 30.08 1019 10 16 N/A
11:56 am 11:56 Mostly Cloudy 79 26.1 71 21.7 77 77 VRB 3 6 30.07 1018 10 16 N/A
12:07 pm 12:07 Mostly Cloudy 79 26 70 21 74 74 N N/A 30.04 1017 9 14 N/A
12:20 pm 12:20 Partly Cloudy 79 26 70 21 74 74 N N/A 30.03 1017 10 16 N/A
12:56 pm 12:56 Mostly Cloudy 79 26.1 69 20.6 72 72 N N/A 30.06 1018 10 16 N/A
1:07 pm 13:07 Mostly Cloudy 79 26 70 21 74 74 N N/A 30.02 1017 9 14 N/A
1:56 pm 13:56 Partly Cloudy 81 27.2 71 21.7 72 72 SW 5 7 30.04 1017 8 13 N/A
2:56 pm 14:56 Partly Cloudy 82 27.8 70 21.1 67 67 SW 5 7 30.02 1017 8 13 N/A
3:56 pm 15:56 Sunny 84 28.9 69 20.6 61 61 W 7 11 30.01 1016 7 11 N/A
4:56 pm 16:56 Hazy 83 28.3 70 21.1 65 65 W 8 13 29.99 1016 6 10 N/A
5:56 pm 17:56 Hazy 82 27.8 70 21.1 67 67 NW 7 11 29.99 1016 6 10 N/A
6:56 pm 18:56 Hazy 81 27.2 71 21.7 72 72 WNW 10 17 29.98 1015 6 10 N/A
7:56 pm 19:56 Sunny 79 26.1 72 22.2 79 79 NW 7 11 29.98 1015 8 13 N/A
8:56 pm 20:56 Sunny 76 24.4 72 22.2 88 88 NW 7 11 30.00 1016 9 14 N/A
9:56 pm 21:56 Clear 70 21.1 70 21.1 100 100 WNW 6 9 30.01 1016 10 16 N/A
10:56 pm 22:56 Clear 69 20.6 68 20 96 96 W 6 9 30.02 1017 10 16 N/A
11:56 pm 23:56 Clear 66 19 N/A N/A W 6 9 30.02 1017 10 16 N/A

Powered by AerisWeather